Tracking 33197 objects as of 18-Feb-2026
HD Live streaming from Space Station
objects crossing your sky now

QIANFAN-75

Track QIANFAN-75 now!
10-day predictions
QIANFAN-75 is classified as:


NORAD ID: 63161
Int'l Code: 2025-046C
Perigee: 1,064.7 km
Apogee: 1,086.8 km
Inclination: 89.0 °
Period: 106.6 minutes
Semi major axis: 7446 km
RCS: Unknown
Launch date: March 11, 2025
Source: People's Republic of China (PRC)
Launch site: Wenchang Satellite Launch Center (WSC)
Your satellite tracking list
Your tracking list is empty




NASA's NSSDC Master Catalog

Two Line Element Set (TLE):
1 63161U 25046C   26049.19631554  .00000196  00000-0  28576-3 0  9996
2 63161  88.9785 313.1808 0014827 296.9339  63.0297 13.50996705 56453
Source of the keplerian elements: AFSPC